Starlink 4071

operational
NORAD ID: 52671 Int'l Des: 2022-053 Owner: SPXS Country: US Constellation: starlink
LEOCIRCULAR

Starlink 4071について

説明を読み込み中...

リアルタイム位置

3D地球を読み込み中...

次回通過

高度履歴

Altitude vs Time

uPlot chart will show altitude changes over time

軌道要素

1 52671U 22053R 25310.50308248 .00002005 00000-0 14395-3 0 9996
2 52671 53.2179 347.1273 0001434 89.6838 270.4319 15.08854086192442
Epoch: Nov 6, 2025 • Age: 15 hours

現在のステータス

高度 543.6 km
速度 7.59 km/s
衛星直下点 -13.63°S, 79.33°E
打ち上げ日 May 18, 2022
運用期間 3.4 years
タイプ internet

技術仕様

分類 Payload
質量 297.00 kg
乾燥質量 275.00 kg
総質量 297.00 kg
長さ 0.20 m
直径 2.80 m
スパン 9.00 m
形状 Box + pan
製造者 SPXS
バスタイプ Starlink
フェーズステータス In Orbit
所有者/国 SPXS/US

大規模コンステレーション

Loading constellations...